Flag for U.S.A. Weather past 2 weeks in Trenton, New Jersey, U.S.A.

Now
36 °F

Overcast.


Feels Like: 29 °F
Forecast: 30 / 40 °F
Wind: 9 mph from Northwest

Location: Mercer County Airport

Current Time: Dec 19, 2014 at 1:45:51 AM

Latest Report: Dec 19, 2014 at 12:53 AM


Visibility: 10 mi

Pressure: 29.98 "Hg

Humidity: 64%

Dew point: 25 °F

Location of TrentonLocation

Historic Weather in Trenton — Graph

°F

Trenton temperature yesterday

Maximum temperature yesterday: 39 °F (at 11:53 AM)
Minimum temperature yesterday: 34 °F (at 5:53 AM)
Average temperature yesterday: 37 °F

Past Weeks' High & Low Weather Summary

 TemperatureHumidityPressure
High51 °F (Dec 17, 1:53 PM)97% (Dec 5, 7:57 PM)30.63 "Hg (Dec 5, 7:57 PM)
Low23 °F (Dec 8, 5:53 AM)28% (Dec 7, 1:53 PM)29.63 "Hg (Dec 10, 1:53 PM)
Average38 °F69%30.06 "Hg
* Reported Dec 4 12:53 AM — Dec 19 12:53 AM, Trenton, Weather by CustomWeather, © 2014

Note: Actual official high and low records may vary slightly from our data, if they occured in-between our weather recording intervals... More about our weather records

Advertising

Trenton weather history for previous 24 hours

 ConditionsComfort  
Time TempWeatherWind HumidityBarometerVisibility
12:53 AM
Dec 19
36 °FOvercast.9 mph64%29.98 "Hg10 mi
11:53 PM
Dec 18
36 °FPassing clouds.7 mph64%29.99 "Hg10 mi
10:53 PM36 °FOvercast.7 mph64%30.00 "Hg10 mi
9:53 PM36 °FOvercast.6 mph62%29.99 "Hg10 mi
8:53 PM35 °FOvercast.8 mph64%30.01 "Hg10 mi
7:53 PM36 °FOvercast.6 mph62%30.00 "Hg10 mi
6:53 PM36 °FPassing clouds.8 mph62%29.98 "Hg10 mi
5:53 PM36 °FOvercast.7 mph59%29.99 "Hg10 mi
4:53 PM37 °FOvercast.6 mph57%29.98 "Hg10 mi
3:53 PM38 °FScattered clouds.16 mph55%29.98 "Hg10 mi
2:53 PM39 °FOvercast.14 mph50%29.97 "Hg10 mi
1:53 PM39 °FOvercast.12 mph50%29.97 "Hg10 mi
12:53 PM39 °FOvercast.10 mph48%29.98 "Hg10 mi
11:53 AM39 °FOvercast.12 mph48%30.01 "Hg10 mi
10:53 AM38 °FOvercast.13 mph51%30.02 "Hg10 mi
9:53 AM37 °FOvercast.12 mph52%30.03 "Hg10 mi
8:53 AM36 °FOvercast.9 mph57%30.02 "Hg10 mi
7:53 AM35 °FOvercast.7 mph56%29.99 "Hg10 mi
5:53 AM34 °FClear.7 mph56%29.98 "Hg10 mi
4:53 AM35 °FClear.9 mph54%29.96 "Hg10 mi
3:53 AM36 °FClear.13 mph54%29.95 "Hg10 mi
2:53 AM37 °FPassing clouds.13 mph54%29.94 "Hg10 mi
1:53 AM37 °FOvercast.9 mph54%29.93 "Hg10 mi
Weather by CustomWeather, © 2014

See weather overviewHow to use our weather pages